{"data":{"norad_id":63849,"epoch":"2026-05-25T00:33:08.870112Z","epoch_age_seconds":66215,"freshness":"FRESH","line1":"1 63849U 25093P   26145.02301933  .00025085  00000+0  91764-3 0  9997","line2":"2 63849  43.0008   3.5833 0001328 284.2317  75.8387 15.27592242 59685","mean_motion":15.27592242,"eccentricity":0.0001328,"inclination_deg":43.0008,"raan_deg":3.5833,"arg_perigee_deg":284.2317,"mean_anomaly_deg":75.8387,"bstar":0.00091764,"rev_number":5968,"period_min":94.265993267593,"perigee_km":482.10127868688,"apogee_km":483.92359997797,"semimajor_km":6861.1494393324,"source":"CELESTRAK","updated_at":"2026-05-25T13:38:20.148926Z"}}